weather.gov     
National Weather Service

Regional Weather Roundup
NWS Homepage
This page is being discontinued on March 12, 2014.
The same data is available at this site. Please update your bookmarks.
Thank you, and we apologize for the inconvenience.
Please send an email to SR-SRH.Webmaster@noaa.gov with any concerns.


Current Version
Previous Version:    01  02  03  04  05  06  07  08  09  10  11  12  13  14  15  16  17  18  19  20  21  22  23  24  25  26  27  28  29  30  
   31  32  33  34  35  36  37  38  39  40  41  42  43  44  45  46  47  48  49  50  51  52  53  54  55  56  57  58  59  60  
[Printable]
158
ASUS44 KLUB 160510
RWRTX
WEST TEXAS WEATHER ROUNDUP
NATIONAL WEATHER SERVICE LUBBOCK TX
1200 AM CDT TUE SEP 16 2014

NOTE: "FAIR" INDICATES FEW OR NO CLOUDS BELOW 12,000 FEET WITH NO
SIGNIFICANT WEATHER AND/OR OBSTRUCTIONS TO VISIBILITY.

TXZ004-006>008-010-012-014-016-OKZ002-160600-
TEXAS PANHANDLE/OKLAHOMA PANHANDLE

CITY           SKY/WX    TMP DP  RH WIND       PRES   REMARKS
AMARILLO       CLOUDY    60  58  92 N10       30.30R
BORGER         PTCLDY    61  56  83 N5        30.29R
CANADIAN       CLOUDY    66  60  81 N8        30.24F
DALHART        CLOUDY    59  56  89 NE5       30.33S
DUMAS          CLOUDY    59  56  91 N6        30.31S
GUYMON         CLOUDY    62  57  83 N3        30.28F
HEREFORD       CLOUDY    62  61  96 N6        30.31S
PAMPA          CLOUDY    61  56  85 N7        30.28S
PERRYTON       MOCLDY    61  56  84 NE6       30.28S
$$

TXZ026-029-035-045-048-160600-
SOUTHERN PANHANDLE/SOUTH PLAINS/ROLLING PLAINS

CITY           SKY/WX    TMP DP  RH WIND       PRES   REMARKS
CHILDRESS      CLOUDY    75  66  73 S5        30.18S
SEMINOLE       CLOUDY    69  66  90 CALM      30.25S
LUBBOCK        CLOUDY    69  65  86 NE5       30.24S
PLAINVIEW      MOCLDY    67  64  87 N7        30.25R
SNYDER         CLOUDY    75  65  73 SE5       30.20S
$$

TXZ052-054-060>062-072-078-127-140-154-169-160600-
PERMIAN BASIN/CONCHO VALLEY/BIG COUNTRY/EDWARDS PLATEAU

CITY           SKY/WX    TMP DP  RH WIND       PRES   REMARKS
ABILENE        MOCLDY    74  66  76 SE7       30.17S
BIG SPRING     CLOUDY    78  66  67 SE7       30.23R
BRADY            N/A     73  66  78 E8        30.16S
BROWNWOOD      CLOUDY    73  68  83 SE3       30.16S
JUNCTION       CLOUDY    76  66  71 E3        30.15S
MIDLAND        MOCLDY    72  66  81 CALM      30.21R
ODESSA         CLOUDY    70  65  84 E6        30.22R
SAN ANGELO     CLOUDY    75  66  73 E5        30.16R
SONORA         CLOUDY    77  66  69 CALM      30.21S
SWEETWATER     CLOUDY    73  66  80 SE8       30.21S
WINK           CLOUDY    71  67  87 E5        30.19R
$$

TXZ055-058-074-075-080-082-160600-
FAR WEST/SOUTHWEST MOUNTAINS/TRANS PECOS

CITY           SKY/WX    TMP DP  RH WIND       PRES   REMARKS
ALPINE         MOCLDY    66  62  86 CALM      30.32S
DRYDEN           N/A     75  68  78 NE5       30.15R
EL PASO        LGT RAIN  73  65  75 N6        30.20R
FORT STOCKTON  CLOUDY    71  65  81 SE8       30.20R
GUADALUPE PASS CLOUDY    62  62 100 NE24      30.32S FOG
MARFA          MOCLDY    64  63  94 NE3       30.30R
PECOS          CLOUDY    71  65  81 NE5       30.19R
PRESIDIO       FAIR      77  63  61 NE12G17   30.14S
$$

TXZ014-016-019-021>030-083-160600
TEXAS TECH WEST TEXAS MESONET/TEXAS PANHANDLE/NORTHERN SOUTH PLAINS

CITY           SKY/WX    TMP DP  RH WIND       PRES   REMARKS
ABERNATHY 5ENE   N/A     63  60  90 E3        30.28R
AMARILLO 9NNE    N/A     59  58  96 N5        30.31R
AMARILLO 7SSE    N/A     60  58  94 N10       30.31S
AMHERST 1NE      N/A     64  63  96 N6        30.29R
BOOTLEG 11WNW    N/A     60  57  91 NE7       30.36S
CANADIAN 6E      N/A     62  58  87 N6        30.24S
CAPROCK CYN SP   N/A     73  62  68 NW6       30.23S
CLARENDON 2WSW   N/A     67  59  76 N9        30.25S
CLAUDE 12SW      N/A     62  59  91 N10       30.28S
DIMMITT 2NE      N/A     61  59  93 N8        30.31S
FLOYDADA 2NNE    N/A     65  62  90 W1        30.25R
FRIONA 2NE       N/A     60  57  89 N6        30.33S
GOODLETT 3W      N/A     75  65  71 E6        30.16S
HART 3N          N/A     62  59  89 N8        30.30S
HEREFORD 2NW     N/A     60  58  91 N5        30.33S
MCLEAN 1E        N/A     65  60  83 N8        30.25R
MEMPHIS 1NE      N/A     71  64  77 NW2       30.20S
MULESHOE 2SSW    N/A     64  60  87 N8        30.30S
OLTON 6S         N/A     64  61  89 N8        30.28S
PALO DURO SP     N/A     61  58  89 N9        30.30S
PAMPA 2E         N/A     61  58  90 N8        30.28S
PLAINVIEW 1S     N/A     67  63  85 N5        30.27R
SILVERTON 7ESE   N/A     68  61  77 NW7       30.24S
TULIA 2ENE       N/A     61  59  92 NW7       30.29S
TURKEY 2WSW      N/A     72  65  78 S3        30.22S
UMBARGER 3NNE    N/A     59  58  96 N10       30.32R
$$

TXZ033>036-039>041-045>048-160600
TEXAS TECH WEST TEXAS MESONET/SOUTH PLAINS

CITY           SKY/WX    TMP DP  RH WIND       PRES   REMARKS
AIKEN 3WSW       N/A     63  62  94 NW9       30.27S
ANDREWS 2NE      N/A     68  63  85 E2        30.25S
ANTON 6SSW       N/A     68  65  90 NE5       30.26S
BROWNFIELD 2S    N/A     68  64  88 NE3       30.25S
DENVR CTY 7WNW   N/A     65  62  90 N5        30.27R
GAIL 2ESE        N/A     73  66  79 E5        30.21R
LAMESA 2SE       N/A     71  65  81 NE3       30.23S
LEVELLAND 4S     N/A     67  64  90 N1        30.27S
LUBBOCK 3WNW     N/A     70  64  80 NE2       30.26S
MORTON 1ENE      N/A     65  64  96 N2        30.28S
ODONNELL 1N      N/A     69  64  83 NE5       30.24R
PLAINS 3N        N/A     67  64  89 E2        30.28R
RALLS 1SE        N/A     69  66  91 NE2       30.26S
REESE CENTER     N/A     68  64  88 NE5       30.27R
SEAGRAVES 1SW    N/A     69  65  86 NE2       30.25S
SEMINOLE 2NNE    N/A     68  65  88 E3        30.25R
SLATON 2NE       N/A     69  64  84 N2        30.25S
SNYDER 3E        N/A     74  65  74 S8        30.20S
SUNDOWN 8SW      N/A     67  64  88 E3        30.26S
TAHOKA 3NNE      N/A     69  65  85 NE3       30.24S
WOLFFORTH 6SSW   N/A     69  68  98 NE3       30.25S
$$

TXZ031-032-036>038-042>044-160600-
TEXAS TECH WEST TEXAS MESONET/ROLLING PLAINS

CITY           SKY/WX    TMP DP  RH WIND       PRES   REMARKS
ASPERMONT 3NE    N/A     76  66  71 SE6       30.17S
FLUVANNA 3WNW    N/A     73  64  73 E5        30.21F
GRAHAM 5SSW      N/A     72  64  76 NE7       30.22F
GUTHRIE 10WSW    N/A     73  66  79 NE5       30.18S
HASKELL 1NW      N/A     77  63  61 S6        30.17S
JAYTON 1SSE      N/A     74  66  77 NE5       30.18S
KNOX CITY 3NW    N/A     76  66  70 SE6       30.16S
LK A HENRY 1NW   N/A     74  67  77 NE3       30.20S
NORTHFIELD 1S    N/A     74  67  77 S5        30.19S
ODELL 4ENE       N/A     76  68  75 SE8       30.16S
PADUCAH 10SW     N/A     74  65  73 NE3       30.19S
POST 1NE         N/A     72  65  80 NW2       30.21S
RRING SPRGS 3N   N/A     72  65  79 E1        30.22S
SEYMOUR 3NW      N/A     77  65  67 S7        30.15F
SPUR 1W          N/A     71  66  85 NW2       30.20S
WEINERT 2NNE     N/A     75  67  77 SE5       30.16S
WHITE RVR 6NE    N/A     71  65  82 N6        30.22S
$$

TXZ052-054-060>062-072-078-127-140-154-169-160600-
TEXAS TECH WEST TEXAS MESONET/PERMIAN BASIN/
CONCHO VALLEY/BIG COUNTRY/EDWARDS PLATEAU

CITY           SKY/WX    TMP DP  RH WIND       PRES   REMARKS
COYANOSA 2N      N/A     72  65  79 E6        30.20S
JUNCTION 1SSW    N/A     74  66  75 CALM      30.17S
MERTZON 3NNE     N/A     74  66  75 NE2       30.20R
SAN ANGELO 7NW   N/A     73  67  81 NE6       30.18R
STRLNG CT 4WSW   N/A     74  65  72 SE7       30.20S
ST LAWRNCE 5SW   N/A     70  68  91 E5        30.21F
SWEETWATR 11SW   N/A     72  66  82 SE8       30.21S
WALL 1E          N/A     72  66  80 E6        30.19R
$$

TXZ055-058-074-075-080-082-160600-
TEXAS TECH WEST TEXAS MESONET/FAR WEST/SOUTHWEST MOUNTAINS/TRANS PECOS

CITY           SKY/WX    TMP DP  RH WIND       PRES   REMARKS
PRSMN GAP BBNP   N/A     72  67  82 N13       30.18S
GUADLPE MTN NP   N/A     61  60  96 N7        30.36S
$$




U.S. Dept. of Commerce
NOAA National Weather Service
1325 East West Highway
Silver Spring, MD 20910
E-mail: w-nws.webmaster@noaa.gov
Page last modified: May 16, 2007
NATIONAL WEATHER SERVICE: for Safety, for Work, for Fun - FOR LIFE